Time,TemperatureF,DewpointF,PressureIn,WindDirection,WindDirectionDegrees,WindSpeedMPH,WindSpeedGustMPH,Humidity,HourlyPrecipIn,Conditions,Clouds,dailyrainin,SoftwareType,DateUTC
2013-01-14 00:02:00,13.0,7.0,30.18,SW,227,0.0,2.0,77,0.00,,,0.00,,2013-01-14 06:02:00,
2013-01-14 00:12:00,13.0,7.0,30.18,SW,227,0.0,2.0,77,0.00,,,0.00,,2013-01-14 06:12:00,
2013-01-14 00:22:00,13.0,7.0,30.19,WNW,288,3.0,9.0,77,0.00,,,0.00,,2013-01-14 06:22:00,
2013-01-14 00:32:00,13.0,7.0,30.21,WNW,286,2.0,9.0,77,0.00,,,0.00,,2013-01-14 06:32:00,
2013-01-14 00:42:00,13.0,7.0,30.21,WNW,286,2.0,9.0,77,0.00,,,0.00,,2013-01-14 06:42:00,
2013-01-14 00:53:00,13.0,7.0,30.21,WNW,289,3.0,7.0,77,0.00,,,0.00,,2013-01-14 06:53:00,
2013-01-14 01:02:00,13.0,7.0,30.21,NNW,328,2.0,6.0,76,0.00,,,0.00,,2013-01-14 07:02:00,
2013-01-14 01:12:00,13.0,7.0,30.21,NNW,328,2.0,6.0,76,0.00,,,0.00,,2013-01-14 07:12:00,
2013-01-14 01:22:00,13.0,7.0,30.21,West,269,1.0,9.0,76,0.00,,,0.00,,2013-01-14 07:22:00,
2013-01-14 01:32:00,13.0,7.0,30.22,NW,307,1.0,10.0,77,0.00,,,0.00,,2013-01-14 07:32:00,
2013-01-14 01:42:00,13.0,7.0,30.22,NW,307,1.0,10.0,77,0.00,,,0.00,,2013-01-14 07:42:00,
2013-01-14 01:53:00,12.0,6.0,30.24,West,259,1.0,7.0,77,0.00,,,0.00,,2013-01-14 07:53:00,
2013-01-14 02:02:00,12.0,6.0,30.25,West,279,3.0,9.0,77,0.00,,,0.00,,2013-01-14 08:02:00,
2013-01-14 02:12:00,12.0,6.0,30.25,West,279,3.0,9.0,77,0.00,,,0.00,,2013-01-14 08:12:00,
2013-01-14 02:22:00,12.0,6.0,30.27,West,275,0.0,5.0,77,0.00,,,0.00,,2013-01-14 08:22:00,
2013-01-14 02:32:00,12.0,6.0,30.27,West,279,0.0,2.0,78,0.00,,,0.00,,2013-01-14 08:32:00,
2013-01-14 02:42:00,12.0,6.0,30.27,West,279,0.0,2.0,78,0.00,,,0.00,,2013-01-14 08:42:00,
2013-01-14 02:53:00,12.0,6.0,30.27,West,281,0.0,2.0,78,0.00,,,0.00,,2013-01-14 08:53:00,
2013-01-14 03:02:00,12.0,6.0,30.27,West,280,0.0,2.0,78,0.00,,,0.00,,2013-01-14 09:02:00,
2013-01-14 03:12:00,12.0,6.0,30.27,West,280,0.0,2.0,78,0.00,,,0.00,,2013-01-14 09:12:00,
2013-01-14 03:22:00,12.0,7.0,30.28,West,263,0.0,4.0,79,0.00,,,0.00,,2013-01-14 09:22:00,
2013-01-14 03:33:00,11.0,6.0,30.29,West,267,0.0,0.0,79,0.00,,,0.00,,2013-01-14 09:33:00,
2013-01-14 03:42:00,11.0,6.0,30.29,West,267,0.0,0.0,79,0.00,,,0.00,,2013-01-14 09:42:00,
2013-01-14 03:53:00,11.0,6.0,30.30,WNW,286,0.0,1.0,79,0.00,,,0.00,,2013-01-14 09:53:00,
2013-01-14 04:02:00,11.0,6.0,30.30,WSW,243,0.0,0.0,80,0.00,,,0.00,,2013-01-14 10:02:00,
2013-01-14 04:12:00,11.0,6.0,30.30,WSW,243,0.0,0.0,80,0.00,,,0.00,,2013-01-14 10:12:00,
2013-01-14 04:22:00,11.0,6.0,30.30,SSW,206,0.0,0.0,80,0.00,,,0.00,,2013-01-14 10:22:00,
2013-01-14 04:32:00,11.0,6.0,30.31,West,269,0.0,1.0,80,0.00,,,0.00,,2013-01-14 10:32:00,
2013-01-14 04:42:00,11.0,6.0,30.31,West,269,0.0,1.0,80,0.00,,,0.00,,2013-01-14 10:42:00,
2013-01-14 04:52:00,11.0,6.0,30.32,West,269,1.0,3.0,81,0.00,,,0.00,,2013-01-14 10:52:00,
2013-01-14 05:02:00,10.0,5.0,30.32,WSW,257,0.0,0.0,81,0.00,,,0.00,,2013-01-14 11:02:00,
2013-01-14 05:12:00,10.0,5.0,30.32,WSW,257,0.0,0.0,81,0.00,,,0.00,,2013-01-14 11:12:00,
2013-01-14 05:22:00,10.0,5.0,30.33,WSW,238,0.0,0.0,81,0.00,,,0.00,,2013-01-14 11:22:00,
2013-01-14 05:32:00,10.0,5.0,30.34,SW,223,0.0,1.0,81,0.00,,,0.00,,2013-01-14 11:32:00,
2013-01-14 05:42:00,10.0,5.0,30.34,SW,223,0.0,1.0,81,0.00,,,0.00,,2013-01-14 11:42:00,
2013-01-14 05:53:00,10.0,6.0,30.35,WNW,284,0.0,1.0,82,0.00,,,0.00,,2013-01-14 11:53:00,
2013-01-14 06:03:00,10.0,6.0,30.35,WSW,257,0.0,0.0,82,0.00,,,0.00,,2013-01-14 12:03:00,
2013-01-14 06:12:00,10.0,6.0,30.35,WSW,257,0.0,0.0,82,0.00,,,0.00,,2013-01-14 12:12:00,
2013-01-14 06:23:00,10.0,6.0,30.36,West,275,0.0,1.0,82,0.00,,,0.00,,2013-01-14 12:23:00,
2013-01-14 06:33:00,9.0,5.0,30.37,West,265,0.0,3.0,83,0.00,,,0.00,,2013-01-14 12:33:00,
2013-01-14 06:43:00,9.0,5.0,30.37,West,265,0.0,3.0,83,0.00,,,0.00,,2013-01-14 12:43:00,
2013-01-14 06:52:00,9.0,5.0,30.39,WSW,250,1.0,2.0,83,0.00,,,0.00,,2013-01-14 12:52:00,
2013-01-14 07:03:00,9.0,5.0,30.39,SW,227,0.0,2.0,83,0.00,,,0.00,,2013-01-14 13:03:00,
2013-01-14 07:12:00,9.0,5.0,30.39,SW,227,0.0,2.0,83,0.00,,,0.00,,2013-01-14 13:12:00,
2013-01-14 07:22:00,9.0,5.0,30.40,West,272,0.0,1.0,83,0.00,,,0.00,,2013-01-14 13:22:00,
2013-01-14 07:33:00,9.0,5.0,30.40,WSW,250,0.0,2.0,83,0.00,,,0.00,,2013-01-14 13:33:00,
2013-01-14 07:43:00,9.0,5.0,30.40,WSW,250,0.0,2.0,83,0.00,,,0.00,,2013-01-14 13:43:00,
2013-01-14 07:53:00,9.0,5.0,30.41,WNW,294,0.0,0.0,84,0.00,,,0.00,,2013-01-14 13:53:00,
2013-01-14 08:02:00,9.0,5.0,30.41,West,279,0.0,4.0,84,0.00,,,0.00,,2013-01-14 14:02:00,
2013-01-14 08:13:00,9.0,5.0,30.41,West,279,0.0,4.0,84,0.00,,,0.00,,2013-01-14 14:13:00,
2013-01-14 08:22:00,9.0,5.0,30.41,West,275,0.0,2.0,84,0.00,,,0.00,,2013-01-14 14:22:00,
2013-01-14 08:33:00,9.0,5.0,30.40,WSW,249,0.0,3.0,84,0.00,,,0.00,,2013-01-14 14:33:00,
2013-01-14 08:43:00,9.0,5.0,30.40,WSW,249,0.0,3.0,84,0.00,,,0.00,,2013-01-14 14:43:00,
2013-01-14 08:53:00,11.0,7.0,30.40,WNW,283,2.0,4.0,83,0.00,,,0.00,,2013-01-14 14:53:00,
2013-01-14 09:03:00,11.0,6.0,30.40,NW,304,4.0,6.0,81,0.00,,,0.00,,2013-01-14 15:03:00,
2013-01-14 09:12:00,11.0,6.0,30.40,NW,304,4.0,6.0,81,0.00,,,0.00,,2013-01-14 15:12:00,
2013-01-14 09:23:00,13.0,8.0,30.39,NW,318,4.0,6.0,81,0.00,,,0.00,,2013-01-14 15:23:00,
2013-01-14 09:33:00,13.0,8.0,30.40,West,277,4.0,5.0,80,0.00,,,0.00,,2013-01-14 15:33:00,
2013-01-14 09:43:00,13.0,8.0,30.40,West,277,4.0,5.0,80,0.00,,,0.00,,2013-01-14 15:43:00,
2013-01-14 09:53:00,14.0,9.0,30.40,NW,317,0.0,4.0,79,0.00,,,0.00,,2013-01-14 15:53:00,
2013-01-14 10:03:00,14.0,8.0,30.39,West,272,0.0,4.0,78,0.00,,,0.00,,2013-01-14 16:03:00,
2013-01-14 10:12:00,14.0,8.0,30.39,West,272,0.0,4.0,78,0.00,,,0.00,,2013-01-14 16:12:00,
2013-01-14 10:23:00,16.0,9.0,30.40,NW,315,0.0,5.0,73,0.00,,,0.00,,2013-01-14 16:23:00,
2013-01-14 10:33:00,16.0,8.0,30.39,NW,306,3.0,5.0,71,0.00,,,0.00,,2013-01-14 16:33:00,
2013-01-14 10:43:00,16.0,8.0,30.39,NW,306,3.0,5.0,71,0.00,,,0.00,,2013-01-14 16:43:00,
2013-01-14 10:53:00,16.0,7.0,30.39,West,277,2.0,5.0,68,0.00,,,0.00,,2013-01-14 16:53:00,
2013-01-14 11:03:00,18.0,9.0,30.39,WSW,247,0.0,3.0,66,0.00,,,0.00,,2013-01-14 17:03:00,
2013-01-14 11:12:00,18.0,9.0,30.39,WSW,247,0.0,3.0,66,0.00,,,0.00,,2013-01-14 17:12:00,
2013-01-14 11:23:00,18.0,9.0,30.39,West,273,4.0,5.0,66,0.00,,,0.00,,2013-01-14 17:23:00,
2013-01-14 11:33:00,19.0,9.0,30.39,NW,315,1.0,3.0,64,0.00,,,0.00,,2013-01-14 17:33:00,
2013-01-14 11:43:00,19.0,9.0,30.39,NW,315,1.0,3.0,64,0.00,,,0.00,,2013-01-14 17:43:00,
2013-01-14 11:53:00,19.0,9.0,30.38,WNW,298,2.0,7.0,63,0.00,,,0.00,,2013-01-14 17:53:00,
2013-01-14 12:03:00,20.0,9.0,30.38,WNW,296,3.0,7.0,63,0.00,,,0.00,,2013-01-14 18:03:00,
2013-01-14 12:12:00,20.0,9.0,30.38,WNW,296,3.0,7.0,63,0.00,,,0.00,,2013-01-14 18:12:00,
2013-01-14 12:23:00,20.0,9.0,30.37,WSW,256,6.0,11.0,63,0.00,,,0.00,,2013-01-14 18:23:00,
2013-01-14 12:33:00,20.0,9.0,30.38,WSW,248,1.0,11.0,63,0.00,,,0.00,,2013-01-14 18:33:00,
2013-01-14 12:42:00,20.0,9.0,30.38,WSW,248,1.0,11.0,63,0.00,,,0.00,,2013-01-14 18:42:00,
2013-01-14 12:52:00,21.0,10.0,30.37,WSW,254,1.0,4.0,63,0.00,,,0.00,,2013-01-14 18:52:00,
2013-01-14 13:03:00,22.0,12.0,30.37,NNE,22,0.0,2.0,65,0.00,,,0.00,,2013-01-14 19:03:00,
2013-01-14 13:12:00,22.0,12.0,30.37,NNE,22,0.0,2.0,65,0.00,,,0.00,,2013-01-14 19:12:00,
2013-01-14 13:22:00,23.0,13.0,30.37,WNW,284,0.0,3.0,65,0.00,,,0.00,,2013-01-14 19:22:00,
2013-01-14 13:33:00,23.0,12.0,30.37,West,273,1.0,3.0,63,0.00,,,0.00,,2013-01-14 19:33:00,
2013-01-14 13:43:00,23.0,12.0,30.37,West,273,1.0,3.0,63,0.00,,,0.00,,2013-01-14 19:43:00,
2013-01-14 13:53:00,23.0,13.0,30.38,WSW,254,0.0,3.0,64,0.00,,,0.00,,2013-01-14 19:53:00,
2013-01-14 14:03:00,23.0,12.0,30.39,WNW,288,1.0,3.0,62,0.00,,,0.00,,2013-01-14 20:03:00,
2013-01-14 14:12:00,23.0,12.0,30.39,WNW,288,1.0,3.0,62,0.00,,,0.00,,2013-01-14 20:12:00,
2013-01-14 14:22:00,24.0,14.0,30.38,SSW,199,0.0,2.0,64,0.00,,,0.00,,2013-01-14 20:22:00,
2013-01-14 14:33:00,24.0,13.0,30.39,West,277,1.0,3.0,61,0.00,,,0.00,,2013-01-14 20:33:00,
2013-01-14 14:42:00,24.0,13.0,30.39,West,277,1.0,3.0,61,0.00,,,0.00,,2013-01-14 20:42:00,
2013-01-14 14:53:00,24.0,12.0,30.40,SSW,210,1.0,4.0,60,0.00,,,0.00,,2013-01-14 20:53:00,
2013-01-14 15:02:00,24.0,13.0,30.40,West,266,1.0,3.0,62,0.00,,,0.00,,2013-01-14 21:02:00,
2013-01-14 15:12:00,24.0,13.0,30.40,West,266,1.0,3.0,62,0.00,,,0.00,,2013-01-14 21:12:00,
2013-01-14 15:23:00,24.0,13.0,30.39,West,269,1.0,5.0,63,0.00,,,0.00,,2013-01-14 21:23:00,
2013-01-14 15:33:00,24.0,13.0,30.40,WSW,250,0.0,1.0,62,0.00,,,0.00,,2013-01-14 21:33:00,
2013-01-14 15:42:00,24.0,13.0,30.40,WSW,250,0.0,1.0,62,0.00,,,0.00,,2013-01-14 21:42:00,
2013-01-14 15:53:00,24.0,13.0,30.40,WSW,256,0.0,3.0,61,0.00,,,0.00,,2013-01-14 21:53:00,
2013-01-14 16:02:00,23.0,12.0,30.40,West,280,0.0,3.0,63,0.00,,,0.00,,2013-01-14 22:02:00,
2013-01-14 16:12:00,23.0,12.0,30.40,West,280,0.0,3.0,63,0.00,,,0.00,,2013-01-14 22:12:00,
2013-01-14 16:23:00,23.0,12.0,30.41,West,262,0.0,4.0,62,0.00,,,0.00,,2013-01-14 22:23:00,
2013-01-14 16:33:00,23.0,12.0,30.40,WSW,257,0.0,3.0,63,0.00,,,0.00,,2013-01-14 22:33:00,
2013-01-14 16:43:00,23.0,12.0,30.40,WSW,257,0.0,3.0,63,0.00,,,0.00,,2013-01-14 22:43:00,
2013-01-14 16:53:00,22.0,12.0,30.40,West,278,0.0,0.0,66,0.00,,,0.00,,2013-01-14 22:53:00,
2013-01-14 17:03:00,22.0,13.0,30.40,South,188,0.0,0.0,67,0.00,,,0.00,,2013-01-14 23:03:00,
2013-01-14 17:12:00,22.0,13.0,30.40,South,188,0.0,0.0,67,0.00,,,0.00,,2013-01-14 23:12:00,
2013-01-14 17:23:00,21.0,12.0,30.40,South,188,0.0,0.0,68,0.00,,,0.00,,2013-01-14 23:23:00,
2013-01-14 17:33:00,21.0,13.0,30.39,SW,234,0.0,1.0,70,0.00,,,0.00,,2013-01-14 23:33:00,
2013-01-14 17:43:00,21.0,13.0,30.39,SW,234,0.0,1.0,70,0.00,,,0.00,,2013-01-14 23:43:00,
2013-01-14 17:53:00,20.0,12.0,30.39,West,265,0.0,1.0,72,0.00,,,0.00,,2013-01-14 23:53:00,
2013-01-14 18:02:00,19.0,11.0,30.39,SW,232,0.0,0.0,72,0.00,,,0.00,,2013-01-15 00:02:00,
2013-01-14 18:12:00,19.0,11.0,30.39,SW,232,0.0,0.0,72,0.00,,,0.00,,2013-01-15 00:12:00,
2013-01-14 18:22:00,19.0,12.0,30.38,SW,232,0.0,1.0,73,0.00,,,0.00,,2013-01-15 00:22:00,
2013-01-14 18:32:00,18.0,11.0,30.38,SW,234,0.0,0.0,74,0.00,,,0.00,,2013-01-15 00:32:00,
2013-01-14 18:43:00,18.0,11.0,30.38,SW,234,0.0,0.0,74,0.00,,,0.00,,2013-01-15 00:43:00,
2013-01-14 18:53:00,18.0,11.0,30.38,SW,234,0.0,1.0,74,0.00,,,0.00,,2013-01-15 00:53:00,
2013-01-14 19:02:00,18.0,12.0,30.40,WSW,239,0.0,1.0,76,0.00,,,0.00,,2013-01-15 01:02:00,
2013-01-14 19:12:00,18.0,12.0,30.40,West,259,0.0,0.0,76,0.00,,,0.00,,2013-01-15 01:12:00,
2013-01-14 19:22:00,18.0,12.0,30.40,West,259,0.0,0.0,76,0.00,,,0.00,,2013-01-15 01:22:00,
2013-01-14 19:32:00,17.0,11.0,30.40,South,188,0.0,0.0,77,0.00,,,0.00,,2013-01-15 01:32:00,
2013-01-14 19:43:00,17.0,11.0,30.40,South,188,0.0,0.0,77,0.00,,,0.00,,2013-01-15 01:43:00,
2013-01-14 19:52:00,17.0,11.0,30.40,South,188,0.0,0.0,77,0.00,,,0.00,,2013-01-15 01:52:00,
2013-01-14 20:02:00,16.0,10.0,30.39,WSW,242,0.0,0.0,78,0.00,,,0.00,,2013-01-15 02:02:00,
2013-01-14 20:12:00,16.0,10.0,30.39,WSW,242,0.0,0.0,78,0.00,,,0.00,,2013-01-15 02:12:00,
2013-01-14 20:22:00,16.0,11.0,30.40,SW,227,0.0,0.0,79,0.00,,,0.00,,2013-01-15 02:22:00,
2013-01-14 20:32:00,16.0,11.0,30.39,WSW,244,0.0,1.0,79,0.00,,,0.00,,2013-01-15 02:32:00,
2013-01-14 20:42:00,16.0,11.0,30.39,WSW,244,0.0,1.0,79,0.00,,,0.00,,2013-01-15 02:42:00,
2013-01-14 20:52:00,16.0,11.0,30.39,WSW,254,0.0,0.0,80,0.00,,,0.00,,2013-01-15 02:52:00,
2013-01-14 21:02:00,16.0,11.0,30.39,West,266,0.0,0.0,79,0.00,,,0.00,,2013-01-15 03:02:00,
2013-01-14 21:12:00,16.0,11.0,30.39,West,266,0.0,0.0,79,0.00,,,0.00,,2013-01-15 03:12:00,
2013-01-14 21:22:00,16.0,11.0,30.38,West,269,0.0,0.0,79,0.00,,,0.00,,2013-01-15 03:22:00,
2013-01-14 21:33:00,15.0,10.0,30.38,West,261,0.0,0.0,80,0.00,,,0.00,,2013-01-15 03:33:00,
2013-01-14 21:42:00,15.0,10.0,30.38,West,261,0.0,0.0,80,0.00,,,0.00,,2013-01-15 03:42:00,
2013-01-14 21:52:00,15.0,10.0,30.38,WSW,245,0.0,0.0,80,0.00,,,0.00,,2013-01-15 03:52:00,
2013-01-14 22:02:00,15.0,10.0,30.39,WSW,245,0.0,0.0,81,0.00,,,0.00,,2013-01-15 04:02:00,
2013-01-14 22:12:00,15.0,10.0,30.39,WSW,245,0.0,0.0,81,0.00,,,0.00,,2013-01-15 04:12:00,
2013-01-14 22:22:00,14.0,9.0,30.39,WSW,245,0.0,0.0,81,0.00,,,0.00,,2013-01-15 04:22:00,
2013-01-14 22:32:00,13.0,9.0,30.37,WSW,245,0.0,0.0,82,0.00,,,0.00,,2013-01-15 04:32:00,
2013-01-14 22:42:00,13.0,9.0,30.37,WSW,245,0.0,0.0,82,0.00,,,0.00,,2013-01-15 04:42:00,
2013-01-14 22:52:00,13.0,9.0,30.38,SW,225,0.0,0.0,82,0.00,,,0.00,,2013-01-15 04:52:00,
2013-01-14 23:03:00,13.0,9.0,30.39,SW,225,0.0,0.0,83,0.00,,,0.00,,2013-01-15 05:03:00,
2013-01-14 23:12:00,13.0,9.0,30.39,SW,225,0.0,0.0,84,0.00,,,0.00,,2013-01-15 05:12:00,
2013-01-14 23:22:00,13.0,9.0,30.39,SW,225,0.0,0.0,84,0.00,,,0.00,,2013-01-15 05:22:00,
2013-01-14 23:33:00,12.0,8.0,30.39,SW,225,0.0,0.0,84,0.00,,,0.00,,2013-01-15 05:33:00,
2013-01-14 23:42:00,12.0,8.0,30.39,SW,225,0.0,0.0,84,0.00,,,0.00,,2013-01-15 05:42:00,
2013-01-14 23:52:00,12.0,8.0,30.40,SW,225,0.0,0.0,85,0.00,,,0.00,,2013-01-15 05:52:00,